Location: Unspecified
(38.0989°N, 0.6729°W)
Time: 22:21:10
(UTC+01:00)

Tiangong 2 - Visible Passes

Search period start: 21 February 2017 00:00
Search period end: 03 March 2017 00:00
Orbit: 369 x 377 km, 42.8° (Epoch: 21 February)

Date Brightness Start Highest point End Pass type
(mag) Time Alt. Az. Time Alt. Az. Time Alt. Az.
21 Feb 2.0 19:08:37 10° WNW 19:11:30 35° N 19:14:21 10° ENE visible
21 Feb 3.0 20:45:05 10° WNW 20:46:45 29° WNW 20:46:45 29° WNW visible
22 Feb 1.1 19:41:45 10° WNW 19:44:48 60° NNE 19:46:35 22° E visible
22 Feb 4.7 21:18:33 10° W 21:18:35 10° W 21:18:35 10° W visible
23 Feb 1.7 20:14:54 10° WNW 20:17:53 49° SSW 20:18:29 41° SSE visible
24 Feb 3.7 20:48:47 10° WSW 20:50:29 15° SW 20:50:29 15° SW visible
25 Feb 2.7 19:44:44 10° W 19:47:30 30° SSW 19:50:15 10° SSE visible
